QPF
0.00 0.00 0.00 0.00 0.00 0.00 0.00 0.00 0.01 0.00 0.00 0.00 0.00 0.00 0.00 0.00 0.00 0.00 0.00 0.00 0.00 0.00 0.00 0.00 0.00 0.00 0.00 0.00 0.00 0.00 0.00 0.00 0.00 0.00 0.00 0.00 0.00 0.00 0.00 0.00 0.00 0.00 0.00 0.00
0.00 0.00 0.00 0.00 0.00 0.00 0.00 0.00 0.00 0.00 0.00 0.00 0.00 0.00 0.00 0.00 0.00 0.00 0.00 0.00 0.00 0.00 0.00 0.00 0.00 0.00 0.00 0.00 0.00 0.00 0.00 0.00 0.00 0.00 0.00 0.00 0.00 0.00 0.00 0.00 0.00 0.00 0.00 0.00
0.01 0.00 0.00 0.01 0.00 0.00 0.00 0.00 0.00 0.00 0.00 0.00 0.00 0.00 0.00 0.00 0.00 0.00 0.01 0.00 0.00 0.00 0.00 0.00 0.00 0.00 0.00 0.00 0.00 0.00 0.00 0.00 0.00 0.00 0.00 0.00 0.00 0.00 0.00 0.00 0.00 0.00 0.00 0.00
0.01 0.01 0.01 0.00 0.00 0.00 0.00 0.00 0.00 0.00 0.00 0.00 0.00 0.00 0.00 0.00 0.00 0.01 0.02 0.00 0.00 0.00 0.00 0.00 0.00 0.00 0.00 0.00 0.00 0.00 0.00 0.00 0.00 0.00 0.00 0.00 0.00 0.00 0.00 0.00 0.00 0.00 0.00 0.00
0.01 0.01 0.00 0.00 0.00 0.00 0.00 0.00 0.00 0.00 0.00 0.00 0.00 0.00 0.02 0.00 0.00 0.01 0.01 0.00 0.00 0.00 0.00 0.00 0.00 0.00 0.00 0.00 0.00 0.00 0.00 0.00 0.00 0.00 0.00 0.00 0.00 0.00 0.00 0.00 0.00 0.00 0.00 0.00
0.02 0.03 0.01 0.00 0.00 0.00 0.00 0.00 0.00 0.00 0.00 0.00 0.00 0.05 0.06 0.00 0.00 0.00 0.00 0.00 0.00 0.00 0.00 0.00 0.00 0.00 0.00 0.00 0.00 0.00 0.00 0.00 0.00 0.00 0.00 0.00 0.00 0.00 0.00 0.00 0.00 0.00 0.00 0.00
0.01 0.02 0.00 0.00 0.00 0.00 0.00 0.00 0.00 0.00 0.01 0.01 0.05 0.05 0.01 0.00 0.00 0.00 0.00 0.00 0.00 0.00 0.00 0.00 0.00 0.00 0.00 0.00 0.00 0.00 0.00 0.00 0.00 0.00 0.00 0.00 0.00 0.00 0.00 0.00 0.00 0.00 0.00 0.00
0.02 0.02 0.01 0.00 0.00 0.00 0.00 0.00 0.00 0.01 0.03 0.03 0.02 0.00 0.00 0.00 0.00 0.00 0.00 0.00 0.00 0.00 0.00 0.00 0.00 0.00 0.00 0.00 0.00 0.00 0.00 0.00 0.00 0.00 0.00 0.00 0.00 0.00 0.00 0.00 0.00 0.00 0.00 0.00
0.02 0.02 0.00 0.00 0.01 0.02 0.01 0.02 0.07 0.03 0.01 0.00 0.00 0.00 0.00 0.00 0.00 0.00 0.00 0.00 0.00 0.00 0.00 0.00 0.00 0.00 0.00 0.00 0.00 0.00 0.00 0.00 0.00 0.00 0.00 0.00 0.00 0.00 0.00 0.00 0.00 0.00 0.00 0.00
0.01 0.00 0.00 0.00 0.00 0.00 0.00 0.03 0.01 0.00 0.00 0.00 0.00 0.00 0.00 0.00 0.00 0.00 0.00 0.00 0.00 0.00 0.00 0.00 0.00 0.00 0.00 0.00 0.00 0.00 0.00 0.00 0.00 0.00 0.00 0.00 0.00 0.00 0.00 0.00 0.00 0.00 0.00 0.00
0.01 0.00 0.00 0.00 0.00 0.01 0.03 0.00 0.00 0.00 0.00 0.00 0.00 0.00 0.00 0.00 0.00 0.00 0.00 0.00 0.00 0.00 0.00 0.00 0.00 0.00 0.00 0.00 0.00 0.00 0.00 0.00 0.00 0.00 0.00 0.00 0.00 0.00 0.00 0.00 0.00 0.00 0.00 0.00
0.01 0.01 0.01 0.01 0.03 0.04 0.03 0.01 0.00 0.00 0.00 0.00 0.00 0.00 0.00 0.00 0.00 0.00 0.00 0.00 0.00 0.00 0.00 0.00 0.00 0.00 0.00 0.00 0.00 0.00 0.00 0.00 0.00 0.00 0.00 0.00 0.00 0.00 0.00 0.00 0.00 0.00 0.00 0.00
0.01 0.00 0.02 0.07 0.07 0.03 0.01 0.00 0.00 0.00 0.00 0.00 0.00 0.00 0.00 0.00 0.00 0.00 0.00 0.00 0.00 0.00 0.00 0.00 0.00 0.00 0.00 0.00 0.00 0.00 0.00 0.00 0.00 0.00 0.00 0.00 0.00 0.00 0.00 0.00 0.00 0.00 0.00 0.00
0.02 0.03 0.03 0.02 0.00 0.00 0.00 0.00 0.00 0.00 0.00 0.00 0.00 0.00 0.00 0.00 0.00 0.00 0.00 0.00 0.00 0.00 0.00 0.00 0.00 0.00 0.00 0.00 0.00 0.00 0.00 0.00 0.00 0.00 0.00 0.00 0.00 0.00 0.00 0.00 0.00 0.00 0.00 0.00
0.01 0.01 0.01 0.00 0.00 0.00 0.00 0.00 0.00 0.00 0.00 0.00 0.00 0.00 0.00 0.00 0.00 0.00 0.00 0.00 0.00 0.00 0.00 0.00 0.00 0.00 0.00 0.00 0.00 0.00 0.00 0.00 0.00 0.00 0.00 0.00 0.00 0.00 0.00 0.00 0.00 0.00 0.00 0.00
0.00 0.01 0.00 0.00 0.00 0.00 0.00 0.00 0.00 0.00 0.00 0.00 0.00 0.00 0.00 0.00 0.00 0.00 0.00 0.00 0.00 0.00 0.00 0.00 0.00 0.00 0.00 0.00 0.00 0.00 0.00 0.00 0.00 0.00 0.00 0.00 0.00 0.00 0.00 0.00 0.00 0.00 0.00 0.00
0.00 0.00 0.00 0.00 0.00 0.00 0.00 0.00 0.00 0.00 0.00 0.00 0.00 0.00 0.00 0.00 0.00 0.00 0.00 0.00 0.00 0.00 0.00 0.00 0.00 0.00 0.00 0.00 0.00 0.00 0.00 0.00 0.00 0.00 0.00 0.00 0.00 0.00 0.00 0.00 0.00 0.00 0.00 0.00
0.00 0.00 0.00 0.00 0.00 0.00 0.00 0.00 0.00 0.00 0.00 0.00 0.00 0.00 0.00 0.00 0.00 0.00 0.00 0.00 0.00 0.00 0.00 0.00 0.00 0.00 0.00 0.00 0.00 0.00 0.00 0.00 0.00 0.00 0.00 0.00 0.00 0.00 0.00 0.00 0.00 0.00 0.00 0.00
0.00 0.00 0.00 0.00 0.00 0.00 0.00 0.00 0.00 0.00 0.00 0.00 0.00 0.00 0.00 0.00 0.00 0.00 0.00 0.00 0.00 0.00 0.00 0.00 0.00 0.00 0.00 0.00 0.00 0.00 0.00 0.00 0.00 0.00 0.00 0.00 0.00 0.00 0.00 0.00 0.00 0.00 0.00 0.00
0.00 0.00 0.00 0.00 0.00 0.00 0.00 0.00 0.00 0.00 0.00 0.00 0.00 0.00 0.00 0.00 0.00 0.00 0.00 0.00 0.00 0.00 0.00 0.00 0.00 0.00 0.00 0.00 0.00 0.00 0.00 0.00 0.00 0.00 0.00 0.00 0.00 0.00 0.00 0.00 0.00 0.00 0.00 0.00
0.00 0.00 0.00 0.00 0.00 0.00 0.00 0.00 0.00 0.00 0.00 0.00 0.00 0.00 0.00 0.00 0.00 0.00 0.00 0.00 0.00 0.00 0.00 0.00 0.00 0.00 0.00 0.00 0.00 0.00 0.00 0.00 0.00 0.00 0.00 0.00 0.00 0.00 0.00 0.00 0.00 0.00 0.00 0.00
0.00 0.00 0.00 0.00 0.00 0.00 0.00 0.00 0.00 0.00 0.00 0.00 0.00 0.00 0.00 0.00 0.00 0.00 0.00 0.00 0.00 0.00 0.00 0.00 0.00 0.00 0.00 0.00 0.00 0.00 0.00 0.00 0.00 0.00 0.00 0.00 0.00 0.00 0.00 0.00 0.00 0.00 0.00 0.00
0.00 0.00 0.00 0.00 0.00 0.00 0.00 0.00 0.00 0.00 0.00 0.00 0.00 0.00 0.00 0.00 0.00 0.00 0.00 0.00 0.00 0.00 0.00 0.00 0.00 0.00 0.00 0.00 0.00 0.00 0.00 0.00 0.00 0.00 0.00 0.00 0.00 0.00 0.00 0.00 0.00 0.00 0.00 0.00
0.00 0.00 0.00 0.00 0.00 0.00 0.00 0.00 0.00 0.00 0.00 0.00 0.00 0.00 0.00 0.00 0.00 0.00 0.00 0.00 0.00 0.00 0.00 0.00 0.00 0.00 0.00 0.00 0.00 0.00 0.00 0.00 0.00 0.00 0.00 0.00 0.00 0.00 0.00 0.00 0.00 0.00 0.00 0.00
0.00 0.00 0.00 0.00 0.00 0.00 0.00 0.00 0.00 0.00 0.00 0.00 0.00 0.00 0.00 0.00 0.00 0.00 0.00 0.00 0.00 0.00 0.00 0.00 0.00 0.00 0.00 0.00 0.00 0.00 0.00 0.00 0.00 0.00 0.00 0.00 0.00 0.00 0.00 0.00 0.00 0.00 0.00 0.00
0.00 0.00 0.00 0.00 0.00 0.00 0.00 0.00 0.00 0.00 0.00 0.00 0.00 0.00 0.00 0.00 0.00 0.00 0.00 0.00 0.00 0.00 0.00 0.00 0.00 0.00 0.00 0.00 0.00 0.00 0.00 0.00 0.00 0.00 0.00 0.00 0.00 0.00 0.00 0.00 0.00 0.00 0.00 0.00
0.00 0.00 0.00 0.00 0.00 0.00 0.00 0.00 0.00 0.00 0.00 0.00 0.00 0.00 0.00 0.00 0.00 0.00 0.00 0.00 0.00 0.00 0.00 0.00 0.00 0.00 0.00 0.00 0.00 0.00 0.00 0.00 0.00 0.00 0.00 0.00 0.00 0.00 0.00 0.00 0.00 0.00 0.00 0.00
MSLP
1009.75 1009.15 1008.77 1008.28 1008.78 1008.83 1008.83 1009.33 1009.73 1008.70 1007.30 1006.09 1005.87 1005.46 1005.13 1005.53 1005.95 1007.31 1009.23 1011.29 1014.00 1016.08 1017.37 1018.16 1018.92 1018.97 1019.19 1019.59 1019.62 1019.74 1020.08 1020.26 1020.63 1021.03 1021.19 1021.27 1021.18 1020.93 1020.55 1020.65 1020.60 1020.47 1020.38 1020.25
1010.22 1009.68 1009.22 1008.62 1008.21 1007.89 1008.10 1007.87 1007.50 1007.15 1005.98 1005.46 1005.17 1004.87 1004.99 1005.08 1005.18 1006.11 1008.07 1010.92 1013.63 1015.90 1017.65 1018.70 1019.17 1019.13 1019.37 1019.78 1019.84 1020.10 1020.35 1020.57 1020.97 1021.35 1021.33 1021.42 1021.18 1020.93 1020.87 1020.75 1020.64 1020.68 1020.54 1020.39
1010.56 1010.32 1009.44 1008.69 1007.21 1007.29 1007.07 1006.91 1006.65 1006.23 1005.58 1005.34 1005.03 1004.82 1004.68 1004.79 1004.99 1006.02 1007.95 1010.10 1013.27 1015.39 1016.88 1018.00 1018.74 1019.07 1019.31 1019.54 1019.96 1020.18 1020.46 1020.77 1021.34 1021.60 1021.46 1021.34 1021.30 1021.26 1021.14 1020.90 1020.93 1020.88 1020.73 1020.63
1011.35 1010.99 1009.63 1007.67 1007.29 1006.57 1006.12 1005.68 1005.31 1004.92 1004.74 1004.46 1004.29 1004.16 1004.53 1005.00 1005.38 1006.18 1008.25 1011.81 1013.92 1015.30 1016.78 1017.86 1018.51 1019.00 1019.29 1019.56 1019.84 1020.06 1020.53 1021.10 1021.48 1021.71 1021.52 1021.54 1021.56 1021.54 1021.40 1021.14 1021.11 1021.13 1021.06 1020.96
1011.57 1010.82 1009.40 1008.02 1006.16 1006.11 1005.58 1005.04 1004.59 1004.51 1004.61 1004.31 1004.24 1004.24 1005.52 1006.04 1006.09 1007.30 1009.34 1011.72 1013.98 1015.77 1016.85 1017.59 1018.21 1018.81 1019.19 1019.41 1019.68 1020.19 1020.77 1021.22 1021.51 1021.55 1021.59 1021.75 1021.92 1021.80 1021.61 1021.43 1021.42 1021.43 1021.50 1021.28
1011.35 1010.50 1008.81 1006.88 1006.37 1006.17 1005.70 1004.88 1004.42 1005.02 1005.36 1005.71 1005.78 1005.17 1007.57 1007.85 1008.22 1009.38 1011.11 1013.10 1014.61 1015.92 1016.96 1017.63 1018.20 1018.63 1018.87 1019.39 1019.95 1020.39 1020.86 1021.18 1021.43 1021.56 1021.59 1021.96 1022.18 1022.10 1021.94 1021.93 1021.87 1021.90 1021.83 1021.68
1009.78 1009.68 1008.30 1006.42 1006.33 1005.59 1006.44 1006.11 1005.43 1006.04 1006.04 1006.53 1007.38 1007.64 1008.82 1009.93 1011.05 1012.06 1012.82 1014.07 1015.44 1016.30 1016.95 1017.61 1018.10 1018.55 1019.06 1019.68 1020.20 1020.56 1020.82 1021.06 1021.39 1021.67 1021.81 1022.15 1022.35 1022.45 1022.42 1022.46 1022.48 1022.54 1022.43 1022.29
1010.11 1009.61 1008.48 1006.68 1006.33 1006.23 1005.46 1005.61 1005.06 1005.59 1006.39 1007.67 1008.72 1009.55 1010.50 1011.30 1012.03 1012.80 1013.85 1014.93 1015.50 1016.39 1017.32 1017.93 1018.23 1018.70 1019.31 1019.98 1020.39 1020.67 1020.78 1021.08 1021.54 1021.97 1022.14 1022.40 1022.64 1022.75 1022.90 1023.10 1023.28 1023.26 1023.14 1022.88
1009.19 1009.07 1008.39 1007.39 1007.10 1006.64 1005.67 1006.34 1005.98 1006.49 1007.33 1008.28 1009.16 1009.70 1010.80 1012.14 1013.15 1014.03 1014.64 1015.47 1016.12 1016.98 1017.86 1018.42 1018.82 1019.44 1020.07 1020.44 1020.57 1020.69 1021.08 1021.41 1021.87 1022.36 1022.36 1022.64 1022.98 1023.15 1023.45 1023.79 1023.84 1023.84 1023.78 1023.46
1008.48 1007.55 1007.25 1006.70 1006.14 1005.69 1005.98 1006.23 1006.16 1007.06 1007.77 1008.53 1009.28 1010.46 1011.12 1012.57 1014.05 1015.13 1015.72 1016.04 1017.10 1017.79 1018.54 1019.32 1019.88 1020.26 1020.69 1020.78 1020.69 1021.00 1021.62 1021.91 1022.26 1022.78 1022.67 1022.88 1023.27 1023.52 1023.82 1024.18 1024.18 1024.18 1024.16 1023.77
1007.46 1007.36 1007.22 1006.35 1005.98 1005.60 1006.43 1006.74 1007.26 1007.23 1008.09 1008.76 1009.52 1011.20 1012.61 1013.65 1014.58 1016.09 1016.24 1016.76 1017.69 1018.48 1019.18 1019.77 1020.41 1020.86 1021.10 1021.21 1021.19 1021.66 1022.21 1022.71 1022.74 1022.94 1023.08 1023.18 1023.68 1023.99 1024.04 1024.22 1024.30 1024.38 1024.31 1024.02
1007.30 1007.35 1007.42 1007.90 1007.62 1006.89 1007.09 1006.92 1007.68 1007.81 1009.01 1010.00 1011.04 1012.17 1013.07 1014.53 1015.65 1016.47 1017.01 1017.88 1018.69 1019.22 1019.71 1020.48 1021.06 1021.47 1021.77 1022.03 1022.09 1022.26 1022.74 1023.23 1023.39 1023.41 1023.58 1023.72 1023.87 1023.98 1023.82 1023.88 1023.95 1024.12 1024.10 1023.95
1006.78 1007.17 1007.02 1006.49 1006.42 1007.04 1007.54 1007.64 1007.51 1008.44 1009.65 1010.68 1011.54 1012.27 1013.41 1014.93 1016.14 1017.12 1018.17 1018.99 1019.39 1019.85 1020.59 1021.28 1021.96 1022.52 1022.83 1023.03 1023.23 1023.40 1023.53 1023.64 1023.80 1023.95 1024.04 1024.17 1024.18 1024.21 1024.16 1023.88 1023.59 1023.54 1023.72 1023.86
1006.54 1007.47 1006.54 1007.04 1007.18 1007.28 1007.60 1008.22 1008.84 1009.88 1010.69 1011.61 1012.44 1013.49 1014.86 1016.15 1017.33 1018.47 1019.51 1020.14 1020.60 1021.23 1021.99 1022.68 1023.26 1023.72 1023.87 1023.97 1024.10 1024.17 1024.28 1024.18 1024.25 1024.47 1024.45 1024.46 1024.43 1024.35 1024.33 1024.13 1023.91 1023.78 1023.64 1023.80
1005.93 1006.88 1006.47 1007.16 1007.25 1008.07 1008.34 1009.27 1010.06 1010.87 1011.83 1012.91 1013.93 1014.79 1015.87 1017.14 1018.42 1019.59 1020.53 1021.03 1021.67 1022.36 1023.02 1023.50 1023.92 1024.28 1024.44 1024.52 1024.59 1024.56 1024.49 1024.51 1024.41 1024.50 1024.50 1024.49 1024.54 1024.59 1024.61 1024.50 1024.36 1024.21 1023.91 1023.93
1004.06 1005.79 1006.41 1007.23 1008.07 1008.97 1009.46 1010.24 1010.96 1011.96 1012.91 1013.70 1014.51 1015.59 1016.72 1017.91 1019.04 1020.15 1021.04 1021.83 1022.23 1022.83 1023.43 1023.85 1024.23 1024.58 1024.59 1024.57 1024.79 1024.96 1024.91 1024.78 1024.51 1024.49 1024.61 1024.68 1024.75 1024.83 1024.85 1024.78 1024.70 1024.57 1024.38 1024.37
1003.57 1004.90 1006.39 1007.57 1008.41 1009.21 1009.94 1010.77 1011.75 1012.62 1013.21 1013.94 1014.91 1015.97 1017.06 1018.24 1019.40 1020.34 1021.19 1021.98 1022.46 1023.13 1023.65 1023.98 1024.46 1024.59 1024.65 1024.64 1024.47 1024.24 1024.33 1024.56 1024.67 1024.60 1024.75 1024.95 1024.97 1024.99 1025.11 1025.07 1024.94 1024.82 1024.70 1024.48
1003.28 1003.85 1005.35 1006.98 1008.53 1009.64 1010.43 1011.31 1012.22 1012.93 1013.42 1014.27 1015.27 1016.24 1017.36 1018.49 1019.45 1020.69 1021.63 1022.28 1022.73 1023.20 1023.50 1023.99 1024.30 1024.49 1024.55 1024.40 1024.14 1024.22 1024.29 1024.42 1024.63 1024.78 1024.94 1025.14 1025.23 1025.08 1025.24 1025.32 1025.24 1025.13 1024.97 1024.73
1002.95 1003.74 1004.96 1006.43 1008.05 1009.75 1010.76 1011.67 1012.47 1012.94 1013.84 1014.83 1015.83 1016.98 1018.02 1019.15 1020.16 1021.05 1021.82 1022.38 1022.69 1023.00 1023.55 1023.78 1024.01 1024.05 1024.20 1024.53 1024.49 1024.29 1024.45 1024.57 1024.66 1025.04 1025.23 1025.18 1025.37 1025.34 1025.43 1025.49 1025.49 1025.40 1025.23 1025.05
1002.37 1003.70 1005.45 1007.03 1008.59 1009.91 1011.06 1011.98 1012.73 1013.75 1014.82 1015.66 1016.74 1017.91 1018.96 1019.89 1020.56 1021.29 1021.91 1022.21 1022.29 1022.28 1023.12 1023.49 1023.82 1023.76 1024.19 1024.49 1024.45 1024.44 1024.67 1024.85 1024.89 1025.18 1025.50 1025.50 1025.55 1025.59 1025.59 1025.58 1025.62 1025.57 1025.46 1025.29
1004.11 1005.09 1006.55 1007.74 1009.20 1010.43 1011.55 1012.37 1013.21 1014.57 1015.69 1016.47 1017.34 1018.44 1019.32 1020.19 1020.86 1021.33 1021.76 1021.80 1022.29 1022.50 1022.75 1023.42 1023.52 1023.88 1024.14 1024.43 1024.49 1024.59 1024.86 1025.06 1025.22 1025.39 1025.63 1025.72 1025.79 1025.82 1025.83 1025.80 1025.83 1025.77 1025.65 1025.50
1006.38 1006.96 1007.80 1008.77 1010.11 1011.31 1012.25 1012.99 1014.03 1015.31 1016.29 1017.12 1018.02 1018.76 1019.52 1020.27 1020.82 1021.20 1021.33 1021.37 1022.02 1022.64 1023.03 1023.28 1023.47 1024.06 1024.04 1024.46 1024.37 1024.73 1024.97 1025.21 1025.32 1025.46 1025.62 1025.78 1025.94 1026.02 1026.06 1025.96 1026.02 1025.94 1025.81 1025.69
1007.74 1008.26 1008.95 1009.94 1010.87 1011.93 1012.97 1013.90 1014.90 1015.81 1016.60 1017.36 1018.07 1018.77 1019.16 1019.62 1020.02 1020.27 1020.71 1021.07 1021.79 1022.57 1022.79 1023.10 1023.77 1024.22 1024.46 1024.50 1024.58 1024.87 1025.15 1025.39 1025.49 1025.58 1025.68 1025.93 1026.00 1026.02 1026.04 1026.02 1026.08 1026.03 1025.93 1025.86
1008.90 1009.44 1010.11 1010.85 1011.70 1012.59 1013.64 1014.81 1015.53 1016.27 1016.96 1017.67 1018.29 1018.73 1018.88 1019.37 1019.73 1019.70 1020.01 1020.74 1021.57 1022.26 1022.65 1023.43 1023.95 1024.35 1024.51 1024.40 1024.56 1024.79 1025.02 1025.19 1025.37 1025.51 1025.63 1025.82 1025.86 1025.91 1025.98 1026.01 1026.07 1026.12 1026.09 1025.96
1009.73 1010.24 1010.86 1011.60 1012.30 1013.14 1014.12 1014.98 1015.77 1016.60 1017.16 1017.60 1018.26 1018.58 1018.68 1018.86 1019.11 1019.41 1020.05 1020.83 1021.65 1022.33 1023.09 1023.58 1023.96 1024.34 1024.51 1024.29 1024.43 1024.63 1024.84 1025.03 1025.32 1025.61 1025.71 1025.75 1025.78 1025.84 1025.92 1025.99 1026.10 1026.21 1026.20 1026.13
1010.42 1010.77 1011.23 1011.75 1012.22 1013.16 1013.93 1014.70 1015.29 1016.10 1016.53 1017.35 1017.94 1018.16 1018.44 1018.59 1018.94 1019.60 1020.33 1021.05 1021.79 1022.21 1022.84 1023.52 1023.96 1024.25 1024.24 1024.07 1024.25 1024.52 1024.71 1024.86 1025.16 1025.41 1025.63 1025.70 1025.71 1025.77 1025.93 1026.09 1026.19 1026.27 1026.24 1026.18
1010.89 1011.18 1011.49 1011.87 1012.34 1012.99 1013.68 1014.01 1014.68 1015.39 1015.95 1016.70 1017.28 1017.85 1018.23 1018.61 1019.11 1019.63 1020.22 1020.98 1021.57 1022.03 1022.38 1023.09 1023.53 1023.90 1023.88 1023.81 1024.04 1024.22 1024.38 1024.54 1024.68 1025.05 1025.34 1025.50 1025.63 1025.76 1025.95 1026.12 1026.20 1026.27 1026.25 1026.26
Thickness
5497 5507 5511 5516 5510 5516 5512 5508 5486 5504 5515 5539 5547 5552 5554 5550 5542 5532 5525 5513 5486 5463 5453 5446 5443 5446 5441 5436 5433 5430 5425 5422 5416 5408 5403 5398 5394 5391 5389 5381 5375 5370 5364 5358
5479 5496 5496 5495 5509 5518 5514 5516 5514 5513 5523 5545 5549 5547 5541 5544 5547 5535 5527 5507 5485 5461 5443 5434 5432 5434 5430 5424 5422 5418 5412 5408 5401 5394 5390 5384 5381 5377 5371 5365 5358 5351 5345 5339
5465 5480 5483 5474 5510 5507 5505 5512 5512 5503 5526 5534 5532 5532 5532 5536 5542 5528 5522 5498 5476 5460 5444 5436 5429 5425 5420 5417 5411 5407 5401 5395 5386 5380 5377 5372 5367 5361 5355 5350 5342 5334 5328 5321
5446 5460 5437 5493 5504 5508 5505 5513 5520 5523 5525 5532 5534 5536 5528 5532 5531 5527 5508 5475 5465 5452 5437 5426 5419 5414 5410 5407 5402 5398 5391 5383 5375 5369 5366 5360 5354 5347 5341 5336 5329 5321 5314 5306
5432 5443 5463 5477 5504 5498 5498 5503 5520 5517 5520 5527 5532 5532 5513 5515 5518 5506 5489 5470 5452 5437 5425 5419 5412 5407 5403 5399 5395 5388 5379 5372 5365 5361 5356 5349 5342 5336 5332 5326 5318 5309 5300 5293
5430 5425 5435 5480 5492 5495 5497 5483 5515 5501 5503 5502 5499 5513 5481 5488 5490 5479 5464 5448 5436 5425 5416 5409 5403 5400 5398 5391 5383 5376 5369 5363 5357 5352 5348 5340 5333 5328 5323 5315 5307 5298 5289 5281
5436 5429 5448 5482 5483 5489 5440 5470 5487 5486 5489 5484 5471 5475 5458 5455 5446 5442 5440 5430 5420 5414 5408 5402 5398 5394 5387 5378 5371 5365 5361 5356 5350 5345 5340 5333 5327 5320 5314 5306 5297 5287 5278 5268
5416 5421 5422 5469 5469 5464 5480 5479 5484 5483 5476 5466 5457 5451 5442 5441 5436 5431 5423 5415 5413 5405 5397 5393 5390 5384 5375 5367 5361 5357 5354 5349 5343 5337 5332 5327 5320 5313 5306 5296 5285 5276 5266 5256
5415 5408 5435 5451 5452 5454 5460 5457 5467 5464 5460 5454 5447 5443 5438 5428 5420 5412 5408 5403 5399 5392 5384 5380 5375 5368 5360 5356 5353 5350 5345 5341 5335 5329 5326 5320 5312 5305 5296 5285 5275 5266 5256 5247
5422 5443 5445 5454 5457 5460 5463 5461 5461 5454 5449 5446 5438 5432 5427 5418 5405 5395 5391 5390 5381 5376 5369 5362 5357 5353 5349 5346 5346 5342 5336 5332 5328 5320 5319 5313 5306 5298 5288 5277 5269 5260 5248 5241
5422 5429 5434 5449 5457 5457 5448 5448 5443 5445 5440 5435 5427 5414 5404 5397 5389 5378 5380 5376 5369 5362 5356 5352 5347 5342 5339 5338 5338 5333 5327 5321 5319 5315 5311 5306 5297 5288 5281 5272 5263 5252 5243 5235
5406 5424 5419 5418 5420 5430 5425 5436 5434 5433 5421 5414 5405 5396 5392 5381 5376 5371 5368 5360 5354 5351 5348 5342 5337 5333 5329 5327 5326 5325 5320 5313 5309 5307 5302 5296 5290 5283 5277 5269 5260 5250 5240 5229
5416 5421 5425 5432 5430 5428 5425 5427 5432 5423 5412 5405 5401 5398 5390 5376 5367 5360 5353 5346 5344 5341 5336 5330 5324 5319 5317 5315 5314 5312 5310 5307 5303 5298 5293 5287 5282 5275 5267 5261 5255 5247 5235 5224
5415 5404 5421 5416 5418 5423 5419 5415 5411 5403 5401 5394 5389 5381 5370 5359 5348 5338 5330 5327 5325 5320 5315 5311 5307 5304 5305 5305 5303 5301 5299 5297 5293 5288 5284 5280 5275 5269 5262 5255 5247 5239 5231 5220
5401 5401 5419 5412 5414 5411 5410 5402 5395 5392 5385 5377 5370 5363 5355 5345 5335 5324 5318 5315 5312 5308 5303 5300 5297 5297 5297 5296 5295 5294 5293 5289 5287 5282 5278 5274 5268 5261 5254 5247 5240 5232 5225 5215
5430 5413 5412 5406 5399 5394 5395 5390 5386 5375 5368 5367 5361 5353 5345 5336 5327 5318 5313 5308 5307 5304 5297 5294 5295 5292 5292 5292 5289 5285 5283 5281 5280 5277 5272 5266 5260 5253 5246 5239 5232 5225 5218 5209
5432 5414 5401 5396 5392 5389 5388 5385 5375 5367 5368 5363 5356 5349 5341 5332 5323 5317 5310 5304 5300 5296 5294 5293 5289 5288 5287 5286 5286 5286 5282 5277 5272 5269 5263 5256 5251 5244 5237 5230 5224 5217 5209 5202
5434 5433 5414 5401 5390 5384 5381 5375 5369 5366 5365 5360 5352 5344 5334 5327 5320 5308 5302 5298 5295 5292 5292 5288 5286 5284 5282 5283 5283 5280 5276 5271 5266 5260 5254 5247 5241 5236 5228 5221 5214 5207 5200 5193
5435 5427 5421 5409 5396 5381 5375 5369 5366 5366 5356 5347 5340 5332 5325 5315 5309 5303 5298 5293 5292 5290 5286 5285 5283 5282 5280 5275 5273 5272 5267 5262 5258 5250 5243 5238 5231 5225 5219 5211 5203 5197 5190 5183
5439 5427 5409 5397 5385 5376 5369 5365 5358 5350 5342 5337 5328 5319 5312 5306 5302 5297 5293 5292 5292 5294 5286 5282 5278 5278 5273 5268 5265 5263 5258 5252 5248 5240 5232 5227 5221 5214 5208 5201 5194 5187 5180 5173
5414 5409 5396 5387 5377 5369 5360 5355 5349 5340 5331 5326 5322 5313 5307 5301 5296 5293 5291 5293 5287 5285 5284 5277 5276 5271 5267 5262 5258 5254 5248 5242 5236 5229 5222 5216 5209 5203 5197 5191 5184 5177 5171 5164
5388 5386 5382 5375 5364 5356 5351 5348 5340 5329 5323 5319 5312 5307 5301 5296 5292 5290 5289 5292 5284 5278 5275 5273 5270 5262 5260 5253 5252 5244 5238 5231 5225 5219 5212 5205 5198 5191 5185 5180 5172 5166 5160 5154
5375 5373 5368 5360 5354 5349 5342 5335 5329 5323 5319 5312 5308 5302 5300 5297 5294 5293 5289 5286 5280 5272 5272 5267 5258 5253 5248 5245 5241 5233 5226 5219 5214 5208 5202 5193 5187 5181 5175 5169 5162 5156 5150 5143
5362 5359 5355 5350 5345 5340 5333 5324 5321 5316 5311 5307 5302 5298 5299 5294 5292 5292 5290 5282 5274 5269 5266 5254 5249 5243 5239 5237 5231 5225 5218 5212 5205 5199 5192 5184 5178 5172 5165 5158 5151 5144 5138 5132
5351 5347 5344 5340 5338 5333 5325 5320 5315 5308 5305 5303 5297 5295 5295 5293 5291 5288 5282 5275 5266 5261 5253 5245 5240 5234 5230 5229 5223 5216 5209 5203 5195 5187 5181 5175 5168 5161 5154 5148 5140 5133 5126 5120
5340 5340 5339 5336 5337 5329 5324 5319 5315 5308 5307 5298 5294 5293 5290 5288 5285 5279 5272 5265 5257 5254 5247 5237 5231 5226 5223 5220 5214 5207 5200 5193 5185 5177 5170 5163 5157 5150 5143 5135 5128 5121 5114 5108
5332 5333 5334 5333 5332 5328 5322 5320 5315 5309 5305 5297 5292 5287 5284 5280 5275 5270 5264 5257 5250 5245 5241 5231 5225 5218 5215 5211 5204 5198 5191 5184 5176 5169 5161 5153 5146 5138 5131 5123 5116 5109 5103 5097